GW2922 Weather Reports


time (UTC)temp
C
wind
direction
speed
KPH
gust
KPH
rain 1hr
cm
rain 24hr
cm
rain mn
cm
humidity
%
barometer
mb
20260507092804 10 188 1.6 3.2 0.00 0.00 0.00 84 1022.9
20260507092300 10 171 1.6 3.2 0.00 0.00 0.00 84 1022.9
20260507091757 10 184 0.0 6.4 0.00 0.00 0.00 84 1022.9
20260507091254 10 189 1.6 1.6 0.00 0.00 0.00 84 1022.9
20260507090754 10 76 0.0 3.2 0.00 0.00 0.00 84 1023.3
20260507090250 10 285 0.0 3.2 0.00 0.00 0.00 84 1022.9
20260507085747 10 282 4.8 6.4 0.00 0.00 0.00 84 1023.3
20260507085244 10 119 0.0 1.6 0.00 0.00 0.00 84 1023.3
20260507084741 10 99 0.0 1.6 0.00 0.00 0.00 84 1023.3
20260507084237 10 97 0.0 3.2 0.00 0.00 0.00 84 1023.3
20260507083735 10 92 3.2 4.8 0.00 0.00 0.00 84 1023.3
20260507083231 10 354 3.2 4.8 0.00 0.00 0.00 85 1023.3
20260507082728 10 8 3.2 3.2 0.00 0.00 0.00 85 1023.3
20260507082223 10 104 1.6 3.2 0.00 0.00 0.00 86 1023.3
20260507081720 10 22 1.6 1.6 0.00 0.00 0.00 86 1023.3
20260507081216 10 306 6.4 11.3 0.00 0.00 0.00 86 1022.9
20260507080713 10 22 3.2 4.8 0.00 0.00 0.00 86 1023.3
20260507080209 10 337 4.8 6.4 0.00 0.00 0.00 85 1022.9
20260507075705 10 322 1.6 3.2 0.00 0.00 0.00 85 1023.3
20260507075201 10 108 0.0 3.2 0.00 0.00 0.00 85 1022.9
20260507074658 10 89 0.0 1.6 0.00 0.00 0.00 85 1022.9
20260507074157 10 76 1.6 3.2 0.00 0.00 0.00 85 1022.9
20260507073653 10 92 1.6 4.8 0.00 0.00 0.00 85 1022.9
20260507073149 10 324 1.6 3.2 0.00 0.00 0.00 85 1022.9
20260507072647 10 86 0.0 1.6 0.00 0.00 0.00 85 1022.9
20260507072144 10 4 3.2 3.2 0.00 0.00 0.00 85 1022.9
20260507071642 10 93 0.0 1.6 0.00 0.00 0.00 85 1022.9
20260507071138 10 79 1.6 3.2 0.00 0.00 0.00 85 1022.9
20260507070635 10 96 0.0 3.2 0.00 0.00 0.00 85 1022.9
20260507070132 10 83 0.0 4.8 0.00 0.00 0.00 85 1022.9
20260507065628 10 88 0.0 1.6 0.00 0.03 0.03 86 1022.9
20260507065125 10 101 0.0 0.0 0.00 0.03 0.03 86 1022.9
20260507064623 10 164 0.0 1.6 0.00 0.03 0.03 86 1022.6
20260507064121 10 90 0.0 1.6 0.00 0.03 0.03 86 1022.9
20260507063619 10 160 0.0 0.0 0.00 0.03 0.03 86 1022.9
20260507063115 10 320 1.6 1.6 0.00 0.03 0.03 86 1022.9
20260507062611 10 125 1.6 3.2 0.00 0.03 0.03 86 1022.9
20260507062109 10 222 0.0 1.6 0.00 0.03 0.03 87 1022.9
20260507061607 10 107 0.0 1.6 0.00 0.03 0.03 87 1022.9
20260507061105 10 144 0.0 3.2 0.00 0.03 0.03 87 1022.9
20260507060603 10 59 3.2 3.2 0.00 0.03 0.03 87 1022.9
20260507060059 10 94 0.0 0.0 0.00 0.03 0.03 88 1022.9
20260507055554 10 95 0.0 0.0 0.00 0.03 0.03 88 1022.9
20260507055051 10 98 0.0 1.6 0.00 0.03 0.03 88 1023.3
20260507054547 10 105 0.0 1.6 0.00 0.03 0.03 89 1022.9
20260507054044 10 115 1.6 3.2 0.00 0.03 0.03 89 1022.9
20260507053542 10 197 0.0 3.2 0.00 0.03 0.03 90 1022.9
20260507053041 10 30 1.6 1.6 0.00 0.03 0.03 90 1022.9
20260507052538 10 160 0.0 1.6 0.00 0.03 0.03 90 1023.3
20260507052034 10 124 0.0 0.0 0.00 0.03 0.03 90 1022.9
20260507051532 10 130 0.0 1.6 0.00 0.03 0.03 90 1022.9
20260507051029 10 122 0.0 1.6 0.00 0.03 0.03 90 1023.3
20260507050525 10 105 0.0 0.0 0.00 0.03 0.03 90 1023.3
20260507050022 10 103 0.0 0.0 0.00 0.03 0.03 90 1022.9
20260507045518 10 101 0.0 0.0 0.00 0.03 0.03 89 1023.3
20260507045016 10 101 0.0 1.6 0.00 0.03 0.03 89 1023.3
20260507044512 10 114 1.6 1.6 0.00 0.03 0.03 89 1023.3
20260507044009 10 100 0.0 1.6 0.00 0.03 0.03 89 1023.3
20260507043505 10 214 0.0 1.6 0.00 0.03 0.03 88 1023.3
20260507043002 10 214 0.0 1.6 0.00 0.03 0.03 88 1022.9
20260507042458 10 72 0.0 1.6 0.00 0.03 0.03 88 1022.9
20260507041954 10 72 0.0 0.0 0.00 0.03 0.03 88 1022.9
20260507041451 10 42 0.0 0.0 0.00 0.03 0.03 87 1023.3
20260507040948 11 42 0.0 3.2 0.00 0.03 0.03 87 1022.9
20260507040444 11 114 0.0 1.6 0.00 0.03 0.03 86 1022.9
20260507035940 11 201 0.0 3.2 0.00 0.03 0.03 86 1022.9
20260507035437 11 127 0.0 1.6 0.00 0.03 0.03 85 1022.9
20260507034933 11 129 0.0 1.6 0.00 0.03 0.03 84 1022.9
20260507034430 11 33 0.0 3.2 0.00 0.03 0.03 84 1022.9
20260507033928 11 34 0.0 3.2 0.00 0.03 0.03 84 1022.9
20260507033426 11 177 1.6 1.6 0.00 0.03 0.03 84 1022.9
20260507032922 11 106 0.0 3.2 0.00 0.03 0.03 84 1022.9
20260507032420 11 267 3.2 3.2 0.00 0.03 0.03 84 1022.9
20260507031915 11 101 0.0 1.6 0.00 0.03 0.03 84 1022.9
20260507031412 12 16 0.0 1.6 0.00 0.03 0.03 83 1022.9
20260507030909 12 235 3.2 3.2 0.00 0.03 0.03 83 1022.6
20260507030406 12 105 0.0 0.0 0.00 0.03 0.03 83 1022.6
20260507025903 12 93 1.6 4.8 0.00 0.03 0.03 83 1022.9
20260507025401 12 128 0.0 1.6 0.00 0.03 0.03 83 1022.6
20260507024859 12 112 0.0 0.0 0.00 0.03 0.03 83 1022.9
20260507024355 12 211 1.6 1.6 0.00 0.03 0.03 83 1022.6
20260507023851 12 190 1.6 1.6 0.00 0.03 0.03 83 1022.6
20260507023348 12 258 1.6 1.6 0.00 0.03 0.03 83 1022.6
20260507022846 12 127 0.0 1.6 0.00 0.03 0.03 83 1022.6
20260507022342 12 100 0.0 0.0 0.00 0.03 0.03 82 1022.9
20260507021838 12 92 0.0 0.0 0.00 0.03 0.03 82 1022.9
20260507021333 12 125 0.0 1.6 0.00 0.03 0.03 82 1022.6
20260507020832 12 227 1.6 1.6 0.00 0.03 0.03 82 1022.6
20260507020328 12 200 0.0 3.2 0.00 0.03 0.03 82 1022.9
20260507015825 12 74 0.0 0.0 0.00 0.03 0.03 82 1022.9
20260507015323 12 130 1.6 4.8 0.00 0.03 0.03 82 1022.6
20260507014819 12 309 1.6 4.8 0.00 0.03 0.03 82 1022.9
20260507014315 12 346 1.6 3.2 0.00 0.03 0.03 81 1022.6
20260507013806 12 110 0.0 0.0 0.00 0.03 0.03 81 1022.6
20260507013304 12 246 0.0 1.6 0.00 0.03 0.03 80 1022.6
20260507012801 12 134 0.0 1.6 0.00 0.03 0.03 80 1022.6
20260507012257 12 134 0.0 1.6 0.00 0.03 0.03 79 1022.6
20260507011754 12 134 0.0 3.2 0.00 0.03 0.03 79 1022.6
20260507011251 12 134 0.0 0.0 0.00 0.03 0.03 79 1022.6
20260507010750 12 106 1.6 1.6 0.00 0.03 0.03 78 1022.6
20260507010246 12 103 0.0 1.6 0.00 0.03 0.03 79 1022.6
20260507005744 12 116 0.0 1.6 0.00 0.03 0.03 80 1022.6
20260507005240 12 167 1.6 4.8 0.00 0.03 0.03 80 1022.6
20260507004737 12 104 3.2 4.8 0.00 0.03 0.03 79 1022.9
20260507004235 12 110 0.0 4.8 0.00 0.03 0.03 79 1022.9
20260507003731 12 104 1.6 3.2 0.00 0.03 0.03 79 1022.6
20260507003226 13 175 6.4 6.4 0.00 0.03 0.03 79 1022.6
20260507002722 12 168 3.2 3.2 0.00 0.03 0.03 79 1022.6
20260507002219 12 111 3.2 4.8 0.00 0.03 0.03 80 1022.6
20260507001715 12 164 3.2 4.8 0.00 0.03 0.03 80 1022.6
20260507001213 12 116 1.6 4.8 0.00 0.03 0.03 80 1022.6
20260507000709 12 110 0.0 3.2 0.00 0.03 0.03 80 1022.3
20260507000205 12 181 1.6 3.2 0.00 0.03 0.03 80 1022.6
20260506235702 12 117 0.0 1.6 0.00 0.03 0.03 81 1022.3
20260506235157 13 117 3.2 4.8 0.00 0.03 0.03 80 1022.3
20260506234654 12 128 0.0 6.4 0.00 0.03 0.03 81 1022.3
20260506234151 12 107 0.0 3.2 0.00 0.03 0.03 81 1022.6
20260506233649 13 95 0.0 4.8 0.00 0.03 0.03 80 1022.6
20260506233145 12 101 0.0 3.2 0.00 0.03 0.03 81 1022.6
20260506232642 12 130 0.0 4.8 0.00 0.03 0.03 81 1022.6
20260506232137 12 103 1.6 1.6 0.00 0.03 0.03 81 1022.6
20260506231634 13 102 0.0 1.6 0.00 0.03 0.03 81 1022.6
20260506231133 12 121 1.6 1.6 0.00 0.03 0.03 81 1022.6
20260506230629 12 122 0.0 3.2 0.00 0.03 0.03 81 1022.6
20260506230126 12 130 1.6 3.2 0.00 0.03 0.03 80 1022.6
20260506225623 12 107 1.6 1.6 0.00 0.03 0.03 80 1022.6
20260506225119 12 111 1.6 3.2 0.00 0.03 0.03 81 1022.6
20260506224616 12 181 3.2 6.4 0.00 0.03 0.03 81 1022.6
20260506224113 12 104 0.0 1.6 0.00 0.03 0.03 81 1022.6
20260506223609 12 99 0.0 4.8 0.00 0.03 0.03 82 1022.6
20260506223105 12 103 3.2 6.4 0.00 0.03 0.03 83 1022.6
20260506222602 12 115 3.2 4.8 0.00 0.03 0.03 83 1022.6
20260506222059 12 121 3.2 6.4 0.00 0.03 0.03 83 1022.6
20260506221556 12 142 1.6 9.7 0.00 0.03 0.03 84 1022.6
20260506221054 12 175 8.0 11.3 0.00 0.03 0.03 82 1022.6
20260506220550 12 93 0.0 1.6 0.00 0.03 0.03 82 1022.6
20260506220045 12 112 1.6 1.6 0.00 0.03 0.03 82 1022.9
20260506215543 12 140 3.2 4.8 0.00 0.03 0.03 80 1022.9
20260506215038 13 108 0.0 0.0 0.00 0.03 0.03 77 1022.6
20260506214535 13 293 0.0 1.6 0.00 0.03 0.03 76 1022.6
20260506214033 13 125 0.0 3.2 0.00 0.03 0.03 76 1022.6
20260506213531 13 146 1.6 3.2 0.00 0.03 0.03 76 1022.6
20260506213028 13 214 1.6 3.2 0.00 0.03 0.03 77 1022.9
20260506212524 13 125 0.0 1.6 0.00 0.03 0.03 79 1022.9
20260506212019 12 23 3.2 4.8 0.00 0.03 0.03 78 1022.9
20260506211515 12 73 0.0 3.2 0.00 0.03 0.03 79 1022.9
20260506211013 12 81 4.8 6.4 0.00 0.03 0.03 80 1022.6
20260506210509 12 302 0.0 3.2 0.00 0.03 0.03 81 1022.6
20260506210006 12 162 1.6 3.2 0.00 0.03 0.03 82 1022.6
20260506205502 12 73 3.2 4.8 0.00 0.03 0.03 83 1022.3
20260506204957 12 246 0.0 1.6 0.00 0.03 0.03 84 1022.6
20260506204455 12 262 1.6 1.6 0.00 0.03 0.03 86 1022.6
20260506203947 11 43 3.2 4.8 0.00 0.03 0.03 86 1022.3
20260506203444 11 121 0.0 4.8 0.00 0.03 0.03 87 1022.6
20260506202941 12 168 1.6 4.8 0.00 0.03 0.03 88 1022.6
20260506202438 11 99 0.0 1.6 0.00 0.03 0.03 89 1022.6
20260506201935 11 39 3.2 4.8 0.00 0.03 0.03 89 1022.6
20260506201432 11 105 0.0 4.8 0.00 0.03 0.03 90 1022.6
20260506200929 11 90 1.6 4.8 0.00 0.03 0.03 89 1022.6
20260506200425 11 124 1.6 3.2 0.00 0.03 0.03 90 1022.6
20260506195922 11 64 0.0 4.8 0.00 0.03 0.03 90 1022.3
20260506195419 11 254 3.2 3.2 0.00 0.03 0.03 90 1022.3
20260506194915 11 339 3.2 4.8 0.00 0.03 0.03 90 1022.3
20260506194413 11 289 4.8 6.4 0.00 0.03 0.03 90 1022.3
20260506193909 10 68 0.0 4.8 0.00 0.03 0.03 91 1022.3
20260506193407 10 121 0.0 4.8 0.00 0.03 0.03 91 1022.3
20260506192903 10 45 1.6 4.8 0.00 0.03 0.03 91 1022.3
20260506192400 10 126 1.6 4.8 0.00 0.03 0.03 92 1022.3
20260506191856 10 295 3.2 4.8 0.00 0.03 0.03 92 1022.3
20260506191353 10 24 3.2 4.8 0.00 0.03 0.03 92 1022.3
20260506190850 11 86 0.0 3.2 0.00 0.03 0.03 93 1021.9
20260506190346 10 114 0.0 3.2 0.00 0.03 0.03 93 1021.9
20260506185843 10 66 1.6 3.2 0.00 0.03 0.03 93 1021.9
20260506185340 10 34 3.2 4.8 0.00 0.03 0.03 93 1021.9
20260506184837 10 330 3.2 11.3 0.00 0.03 0.03 93 1021.9
20260506184334 10 97 1.6 1.6 0.00 0.03 0.03 93 1021.9
20260506183832 10 79 3.2 4.8 0.00 0.03 0.03 93 1021.9
20260506183327 10 158 3.2 4.8 0.00 0.03 0.03 93 1022.3
20260506182825 10 9 1.6 6.4 0.00 0.03 0.03 93 1021.9
20260506182321 10 95 0.0 4.8 0.00 0.03 0.03 93 1021.9
20260506181819 10 98 3.2 4.8 0.00 0.03 0.03 94 1021.9
20260506181317 10 48 3.2 3.2 0.00 0.03 0.03 94 1021.9
20260506180814 10 70 1.6 6.4 0.00 0.03 0.03 94 1021.9
20260506180310 10 81 3.2 9.7 0.00 0.03 0.03 94 1021.9
20260506175806 10 281 4.8 6.4 0.00 0.03 0.03 94 1021.9
20260506175306 10 66 0.0 3.2 0.00 0.03 0.03 94 1021.9
20260506174801 10 90 1.6 4.8 0.00 0.03 0.03 94 1021.6
20260506174258 10 17 3.2 4.8 0.00 0.03 0.03 94 1021.6
20260506173755 10 4 0.0 3.2 0.00 0.03 0.03 94 1021.6
20260506173252 10 4 0.0 3.2 0.00 0.03 0.03 94 1021.6
20260506172749 10 57 3.2 3.2 0.00 0.03 0.03 94 1021.6
20260506172245 10 98 0.0 3.2 0.00 0.03 0.03 95 1021.6
20260506171743 10 128 1.6 1.6 0.00 0.03 0.03 95 1021.6
20260506171240 10 75 1.6 3.2 0.00 0.03 0.03 95 1021.6
20260506170738 10 94 0.0 1.6 0.00 0.03 0.03 95 1021.3
20260506170234 10 100 0.0 4.8 0.00 0.03 0.03 95 1021.3
20260506165732 10 113 0.0 1.6 0.00 0.03 0.03 95 1020.9
20260506165229 10 86 0.0 3.2 0.00 0.03 0.03 95 1021.3
20260506164726 10 116 0.0 0.0 0.00 0.03 0.03 95 1021.3
20260506164223 10 104 0.0 0.0 0.00 0.03 0.03 95 1021.3
20260506163719 10 14 1.6 3.2 0.00 0.03 0.03 95 1021.3
20260506163209 10 297 3.2 4.8 0.18 0.03 0.03 95 1021.3
20260506162705 9 101 0.0 3.2 0.00 0.00 0.00 95 1021.3
20260506162203 10 94 0.0 1.6 0.00 0.00 0.00 95 1021.3
20260506161700 10 85 0.0 3.2 0.00 0.00 0.00 95 1021.6
20260506161156 10 74 3.2 6.4 0.00 0.00 0.00 95 1021.6
20260506160654 10 96 1.6 4.8 0.00 0.00 0.00 95 1021.6
20260506160151 10 103 0.0 0.0 0.00 0.00 0.00 95 1021.6
20260506155649 10 77 1.6 3.2 0.00 0.00 0.00 95 1021.6
20260506155146 10 80 1.6 3.2 0.00 0.00 0.00 95 1021.3
20260506153248 10 97 0.0 0.0 0.00 0.00 0.00 95 1021.3
20260506152745 10 109 0.0 0.0 0.00 0.00 0.00 95 1021.3
20260506152242 10 102 0.0 0.0 0.00 0.00 0.00 95 1020.9
20260506151741 10 99 0.0 0.0 0.00 0.00 0.00 95 1020.9
20260506151237 10 109 0.0 0.0 0.00 0.00 0.00 95 1020.9
20260506150734 10 105 0.0 1.6 0.00 0.00 0.00 95 1020.9
20260506150231 10 102 0.0 0.0 0.00 0.00 0.00 95 1020.9
20260506145728 10 100 0.0 1.6 0.00 0.00 0.00 95 1020.6
20260506145225 10 103 1.6 1.6 0.00 0.00 0.00 95 1020.9
20260506144722 10 106 1.6 1.6 0.00 0.00 0.00 95 1020.6
20260506144219 10 135 3.2 4.8 0.00 0.00 0.00 95 1020.6
20260506143716 10 118 1.6 1.6 0.00 0.00 0.00 95 1020.9
20260506143214 10 125 0.0 1.6 0.00 0.00 0.00 95 1020.9
20260506142713 10 103 0.0 1.6 0.00 0.00 0.00 95 1020.9
20260506142210 10 107 0.0 0.0 0.00 0.00 0.00 94 1020.9
20260506141708 10 109 0.0 1.6 0.00 0.00 0.00 94 1020.9
20260506141206 10 103 0.0 1.6 0.00 0.00 0.00 94 1020.9
20260506140703 10 138 0.0 1.6 0.00 0.00 0.00 94 1020.9
20260506140200 10 107 1.6 4.8 0.00 0.00 0.00 94 1020.6
20260506135657 10 108 3.2 4.8 0.00 0.00 0.00 94 1020.6
20260506135153 10 126 1.6 4.8 0.00 0.00 0.00 94 1020.6
20260506134650 10 116 1.6 1.6 0.00 0.00 0.00 94 1020.6
20260506134146 10 160 1.6 1.6 0.00 0.00 0.00 94 1020.6
20260506133643 10 112 0.0 1.6 0.00 0.00 0.00 93 1020.6
20260506133140 10 129 1.6 4.8 0.00 0.00 0.00 93 1020.6
20260506132637 10 107 1.6 1.6 0.00 0.00 0.00 93 1020.6
20260506132134 10 118 0.0 1.6 0.00 0.00 0.00 93 1020.2
20260506131632 10 106 0.0 0.0 0.00 0.00 0.00 93 1020.6
20260506131128 10 106 0.0 0.0 0.00 0.00 0.00 93 1020.6
20260506130625 10 106 0.0 0.0 0.00 0.00 0.00 93 1020.6
20260506130122 10 106 0.0 1.6 0.00 0.00 0.00 92 1020.6
20260506125620 10 105 1.6 1.6 0.00 0.00 0.00 92 1020.6
20260506125118 10 98 0.0 0.0 0.00 0.00 0.00 92 1020.6
20260506124615 10 97 0.0 1.6 0.00 0.00 0.00 92 1020.2
20260506124113 10 97 0.0 1.6 0.00 0.00 0.00 92 1020.2
20260506123610 10 97 0.0 1.6 0.00 0.00 0.00 92 1020.6
20260506123109 10 97 0.0 1.6 0.00 0.00 0.00 91 1020.6
20260506122605 10 97 0.0 0.0 0.00 0.00 0.00 91 1020.6
20260506122103 10 97 1.6 1.6 0.00 0.00 0.00 91 1020.2
20260506121601 10 97 0.0 0.0 0.00 0.00 0.00 91 1020.2
20260506121057 10 97 0.0 3.2 0.00 0.00 0.00 91 1020.2
20260506120555 10 88 0.0 0.0 0.00 0.00 0.00 91 1020.6
20260506120052 10 24 1.6 3.2 0.00 0.00 0.00 91 1020.2
20260506115550 10 100 0.0 0.0 0.00 0.00 0.00 91 1020.2
20260506115048 10 99 0.0 0.0 0.00 0.00 0.00 91 1020.2
20260506114545 10 98 0.0 0.0 0.00 0.00 0.00 91 1020.2
20260506114043 10 102 0.0 1.6 0.00 0.00 0.00 91 1020.2
20260506113541 10 81 0.0 1.6 0.00 0.00 0.00 91 1020.2
20260506113038 10 106 0.0 0.0 0.00 0.00 0.00 91 1020.2
20260506112534 10 106 0.0 0.0 0.00 0.00 0.00 91 1020.2
20260506112032 10 106 0.0 0.0 0.00 0.00 0.00 91 1020.2
20260506111530 10 106 0.0 0.0 0.00 0.00 0.00 91 1020.2
20260506111027 10 101 0.0 0.0 0.00 0.00 0.00 91 1020.2
20260506110524 10 97 0.0 0.0 0.00 0.00 0.00 91 1019.9
20260506110021 10 97 0.0 0.0 0.00 0.00 0.00 91 1019.9
20260506105517 10 118 0.0 0.0 0.00 0.00 0.00 91 1019.9
20260506105015 10 118 0.0 0.0 0.00 0.00 0.00 91 1019.9
20260506104513 10 116 0.0 1.6 0.00 0.00 0.00 90 1019.6
20260506104011 10 113 0.0 1.6 0.00 0.00 0.00 90 1019.6
20260506103507 10 123 0.0 1.6 0.00 0.00 0.00 90 1019.6
20260506103004 10 140 3.2 3.2 0.00 0.00 0.00 90 1019.6
20260506102503 10 130 0.0 0.0 0.00 0.00 0.00 90 1019.6
20260506101959 10 140 0.0 3.2 0.00 0.00 0.00 90 1019.6
20260506101455 10 124 0.0 0.0 0.00 0.00 0.00 91 1019.6
20260506100953 10 113 0.0 1.6 0.00 0.00 0.00 91 1019.6
20260506100451 10 139 1.6 3.2 0.00 0.00 0.00 91 1019.2
20260506095949 10 94 0.0 1.6 0.00 0.00 0.00 92 1019.2
20260506095448 10 166 0.0 1.6 0.00 0.00 0.00 92 1019.6
20260506094943 10 174 0.0 1.6 0.00 0.00 0.00 92 1019.6
20260506094441 10 175 1.6 3.2 0.00 0.00 0.00 92 1019.6
20260506093939 10 182 0.0 1.6 0.00 0.00 0.00 92 1019.6
20260506093437 10 145 0.0 0.0 0.00 0.00 0.00 92 1019.2
20260506092934 10 156 0.0 1.6 0.00 0.00 0.00 93 1019.2